Powrót do katalogu

QIANFAN-40

AktywnyŁącznośćPO
NORAD 62241·PAYLOAD·🇨🇳 China

Wystrzelony Dec 5, 2024 z Taiyuan Satellite Launch Center

Loading…

Następne Przeloty (najbliższe 24 godziny)

TLE

ŚwieżeSource: Space-Track

Epoka: Sep 14, 2026, 13:32 UTC

1 62241U 24232E   26257.56434711  .00000127  00000-0  17755-3 0  9999
2 62241  89.0187  13.2261 0015461 123.7797 236.4830 13.51028161136833

Śledź QIANFAN-40 w czasie rzeczywistym z AllMySat

Download on the App Store